This is the latest recevied weather packets stored in our database for station/object KC8P. If no packets are shown the sender has not sent any weather packets the latest 10 day(s).
| Time | Temp. | Humidity | Pressure | Rain* | Wind** | Luminosity | Snow |
|---|---|---|---|---|---|---|---|
| 1778262012 | 15° C | 36% | 1010.4 hPa | 0 mm | - | 715 W/m² | - |
| 1778261946 | 15.56° C | 36% | 1010 hPa | 0 mm | - | 720 W/m² | - |
| 1778261879 | 15.56° C | 35% | 1010 hPa | 0 mm | - | 724 W/m² | - |
| 1778261814 | 15.56° C | 37% | 1010.4 hPa | 0 mm | - | 732 W/m² | - |
| 1778261748 | 15.56° C | 37% | 1010.4 hPa | 0 mm | - | 732 W/m² | - |
| 1778261684 | 16.11° C | 36% | 1010 hPa | 0 mm | - | 734 W/m² | - |
| 1778261616 | 16.11° C | 38% | 1010 hPa | 0 mm | - | 733 W/m² | - |
| 1778261551 | 16.67° C | 36% | 1010 hPa | 0 mm | - | 725 W/m² | - |
| 1778261485 | 16.67° C | 35% | 1010.4 hPa | 0 mm | - | 735 W/m² | - |
| 1778261419 | 16.11° C | 38% | 1010.4 hPa | 0 mm | - | 740 W/m² | - |
| 1778261354 | 16.11° C | 37% | 1010.4 hPa | 0 mm | - | 742 W/m² | - |
| 1778261289 | 15.56° C | 38% | 1010.4 hPa | 0 mm | - | 737 W/m² | - |
| 1778261223 | 15.56° C | 39% | 1010.4 hPa | 0 mm | - | 732 W/m² | - |
| 1778261157 | 15.56° C | 37% | 1010.4 hPa | 0 mm | - | 730 W/m² | - |
| 1778261090 | 15.56° C | 37% | 1010.4 hPa | 0 mm | - | 714 W/m² | - |
| 1778261026 | 15.56° C | 38% | 1010.4 hPa | 0 mm | - | 714 W/m² | - |
| 1778260960 | 15.56° C | 38% | 1010.4 hPa | 0 mm | - | 711 W/m² | - |
| 1778260893 | 15° C | 38% | 1010.4 hPa | 0 mm | - | 707 W/m² | - |
| 1778260828 | 15° C | 36% | 1010.8 hPa | 0 mm | - | 707 W/m² | - |
| 1778260762 | 15° C | 37% | 1010.4 hPa | 0 mm | - | 703 W/m² | - |
| 1778260696 | 15.56° C | 36% | 1010.4 hPa | 0 mm | - | 702 W/m² | - |
| 1778260631 | 15.56° C | 36% | 1010.8 hPa | 0 mm | - | 702 W/m² | - |
| 1778260566 | 15.56° C | 36% | 1010.8 hPa | 0 mm | - | 709 W/m² | - |
| 1778260499 | 15.56° C | 39% | 1010.8 hPa | 0 mm | - | 722 W/m² | - |
| 1778260433 | 15.56° C | 39% | 1010.8 hPa | 0 mm | - | 730 W/m² | - |
* Rain latest hour (hover to see other rain measurements)
** Current wind speed in m/s (hover to see current wind gust speed)